1497027600.59,35962,22.38,74174.0,4.97,-27.51,-27.67,0,*79
1497027601.84,35963,22.38,74174.0,4.97,-27.35,-27.51,0,*7F
1497027603.12,35964,22.38,74178.0,4.97,-27.45,-27.61,0,*7C
1497027604.37,35965,22.38,74176.3,4.99,-27.39,-27.61,0,*78
1497027605.6,35966,22.38,74178.0,4.97,-27.51,-27.67,0,*7D
1497027606.85,35967,22.38,74176.8,4.97,-27.45,-27.67,0,*79
1497027608.08,35968,22.38,74174.3,4.97,-27.51,-27.67,0,*73
1497027609.33,35969,22.38,74174.0,4.97,-27.61,-27.77,0,*70
1497027610.61,35970,22.38,74176.3,4.97,-27.61,-27.83,0,*73
1497027611.81,35971,22.38,74176.8,4.99,-27.55,-27.77,0,*70
1497027613.03,35972,22.38,74174.8,4.97,-27.51,-27.77,0,*79
1497027614.27,35973,22.38,74178.0,4.99,-27.61,-27.71,0,*73
1497027615.53,35974,22.38,74174.5,4.97,-27.67,-28.05,0,*70
1497027616.76,35975,22.38,74174.5,4.99,-27.61,-27.93,0,*79
1497027617.96,35976,22.38,74174.5,4.99,-27.55,-27.77,0,*77
1497027619.2,35977,22.38,74176.8,4.99,-27.61,-27.71,0,*77
1497027620.4,35978,22.38,74174.5,4.99,-27.55,-27.77,0,*79
1497027621.6,35979,22.38,74176.0,4.99,-27.55,-27.77,0,*78
1497027622.83,35980,22.38,74174.5,4.99,-27.61,-27.77,0,*79
1497027624.06,35981,22.38,74176.5,4.99,-27.45,-27.71,0,*78
1497027625.32,35982,22.38,74172.8,4.99,-27.45,-27.61,0,*7A
1497027626.57,35983,22.38,74174.3,4.99,-27.45,-27.61,0,*7B
1497027627.8,35984,22.38,74172.5,4.99,-27.55,-27.61,0,*7D
1497027629.05,35985,22.38,74172.5,5.01,-27.39,-27.55,0,*71
1497027630.31,35986,22.38,74176.8,4.99,-27.45,-27.61,0,*7E
1497027631.56,35987,22.38,74176.5,4.99,-27.39,-27.45,0,*72
1497027632.78,35988,22.38,74178.0,4.99,-27.29,-27.45,0,*7C
1497027634.03,35989,22.38,74174.3,4.97,-27.35,-27.51,0,*7B
1497027635.26,35990,22.38,74178.5,4.99,-27.29,-27.45,0,*75
1497027636.53,35991,22.38,74178.5,5.01,-27.19,-27.35,0,*70
1497027637.78,35992,22.38,74174.3,5.01,-27.07,-27.35,0,*7C
1497027639.06,35993,22.38,74178.0,5.01,-27.23,-27.35,0,*7B
1497027640.28,35994,22.38,74176.0,5.03,-27.19,-27.51,0,*75
1497027641.5,35995,22.38,74174.0,5.03,-27.23,-27.51,0,*7D
1497027642.74,35996,22.38,74176.8,5.01,-27.35,-27.55,0,*7F
1497027643.97,35997,22.38,74178.5,5.01,-27.51,-27.55,0,*7C
1497027645.19,35998,22.38,74176.8,5.01,-27.55,-27.71,0,*71
1497027646.42,35999,22.38,74178.8,5.01,-27.51,-27.67,0,*73
1497027647.64,36000,22.38,74178.5,5.01,-27.51,-27.71,0,*7E
1497027648.86,36001,22.38,74174.0,5.01,-27.55,-27.71,0,*7B
1497027650.11,36002,22.38,74176.8,5.01,-27.55,-27.83,0,*75
1497027651.33,36003,22.38,74176.8,5.01,-27.55,-27.89,0,*7E
1497027652.58,36004,22.38,74178.8,5.01,-27.55,-27.83,0,*73
1497027653.78,36005,22.38,74178.3,5.03,-27.51,-27.67,0,*7E
1497027655.01,36006,22.38,74178.0,5.01,-27.51,-27.67,0,*7F
1497027656.23,36007,22.38,74178.5,5.01,-27.51,-27.55,0,*7F
1497027657.46,36008,22.38,74176.3,5.01,-27.51,-27.67,0,*71
1497027658.68,36009,22.38,74178.8,5.01,-27.51,-27.71,0,*77
1497027659.91,36010,22.38,74178.8,5.01,-27.55,-27.67,0,*7C
1497027661.11,36011,22.38,74176.8,5.03,-27.51,-27.71,0,*7C
1497027662.33,36012,22.38,74174.5,5.01,-27.51,-27.71,0,*7D
1497027663.56,36013,22.38,74174.8,5.01,-27.51,-27.67,0,*7B
1497027664.78,36014,22.38,74176.8,5.01,-27.51,-27.67,0,*7C
1497027666.0,36015,22.38,74176.3,5.03,-27.35,-27.55,0,*7C
1497027667.23,36016,22.38,74176.0,5.03,-27.39,-27.55,0,*73
1497027668.43,36017,22.38,74176.0,5.03,-27.51,-27.55,0,*7C
1497027669.63,36018,22.38,74180.3,5.03,-27.51,-27.67,0,*72
1497027670.86,36019,22.38,74180.0,5.03,-27.39,-27.55,0,*7C
1497027672.08,36020,22.38,74176.5,5.03,-27.35,-27.51,0,*7E
1497027673.3,36021,22.38,74176.8,5.03,-27.35,-27.51,0,*7F
1497027674.52,36022,22.38,74180.5,5.03,-27.35,-27.55,0,*78
1497027675.75,36023,22.38,74176.3,5.03,-27.39,-27.67,0,*74
1497027676.95,36024,22.38,74174.5,5.03,-27.55,-27.71,0,*7E
1497027678.15,36025,22.38,74176.3,5.03,-27.51,-27.55,0,*7D
1497027679.37,36026,22.38,74176.3,5.03,-27.35,-27.55,0,*7C
1497027680.62,36027,22.38,74176.0,5.07,-27.35,-27.61,0,*7E
1497027681.87,36028,22.38,74176.5,5.07,-27.45,-27.61,0,*76
1497027683.13,36029,22.38,74178.8,5.07,-27.45,-27.61,0,*77
1497027684.38,36030,22.38,74180.8,5.07,-27.45,-27.61,0,*7F
1497027685.63,36031,22.38,74178.3,5.09,-27.45,-27.51,0,*73
1497027686.88,36032,22.38,74178.0,5.09,-27.29,-27.35,0,*78
1497027688.13,36033,22.38,74176.3,5.09,-27.29,-27.45,0,*7E
1497027689.38,36034,22.38,74178.8,5.07,-27.19,-27.35,0,*73
1497027690.65,36035,22.38,74178.8,5.09,-27.19,-27.35,0,*7C
1497027691.87,36036,22.38,74176.3,5.07,-27.29,-27.45,0,*75
1497027693.12,36037,22.38,74180.8,5.09,-27.13,-27.35,0,*74
1497027694.37,36038,22.38,74178.5,5.09,-27.29,-27.45,0,*75
1497027695.62,36039,22.38,74178.0,5.07,-27.19,-27.35,0,*7E
1497027696.89,36040,22.38,74176.0,5.09,-27.19,-27.35,0,*7E
1497027698.16,36041,22.38,74180.3,5.09,-27.19,-27.35,0,*7F
1497027699.42,36042,22.38,74178.0,5.09,-27.19,-27.45,0,*7B
1497027700.67,36043,22.38,74178.8,5.09,-27.29,-27.35,0,*7E
1497027701.92,36044,22.38,74178.8,5.09,-27.29,-27.45,0,*7E
1497027703.19,36045,22.38,74176.3,5.09,-27.19,-27.35,0,*7B
1497027704.43,36046,22.38,74178.5,5.07,-27.19,-27.45,0,*71
1497027705.7,36047,22.38,74174.8,5.09,-27.19,-27.35,0,*79
1497027706.92,36048,22.38,74178.5,5.11,-27.13,-27.39,0,*79
1497027708.15,36049,22.38,74176.3,5.11,-27.23,-27.29,0,*7A
1497027709.35,36050,22.38,74178.8,5.11,-27.13,-27.29,0,*71
1497027710.55,36051,22.38,74176.8,5.11,-27.13,-27.29,0,*70
1497027711.75,36052,22.38,74176.5,5.11,-27.13,-27.29,0,*73
1497027712.97,36053,22.38,74178.8,5.11,-27.03,-27.23,0,*79
1497027714.19,36054,22.38,74180.0,5.11,-27.13,-27.39,0,*74
1497027715.42,36055,22.38,74178.8,5.11,-27.13,-27.39,0,*75
1497027716.62,36056,22.38,74180.0,5.11,-27.13,-27.29,0,*77
1497027717.88,36057,22.38,74176.3,5.13,-27.19,-27.23,0,*74
1497027719.13,36058,22.38,74180.3,5.11,-27.23,-27.39,0,*7B
1497027720.35,36059,22.38,74180.5,5.11,-27.23,-27.55,0,*70
1497027721.55,36060,22.38,74178.3,5.11,-27.29,-27.55,0,*70
1497027722.79,36061,22.38,74176.0,5.13,-27.35,-27.51,0,*7A
1497027724.05,36062,22.38,74182.3,5.11,-27.61,-27.83,0,*75
1497027725.26,36063,22.38,74176.5,5.13,-27.71,-27.93,0,*76
1497027726.46,36064,22.38,74176.8,5.11,-27.77,-27.93,0,*75
1497027727.66,36065,22.38,74176.3,5.11,-27.55,-27.71,0,*78
1497027728.88,36066,22.38,74176.3,5.11,-27.71,-27.99,0,*7B
1497027730.09,36067,22.44,74180.3,5.11,-27.93,-28.15,0,*7D
1497027731.36,36068,22.38,74176.3,5.13,-28.05,-28.21,0,*77
1497027732.57,36069,22.38,74176.5,5.11,-28.15,-28.31,0,*74
1497027733.8,36070,22.38,74178.0,5.11,-28.25,-28.31,0,*7F
1497027735.05,36071,22.38,74180.8,5.09,-28.37,-28.63,0,*73
1497027736.28,36072,22.38,74180.5,5.09,-28.31,-28.53,0,*75
1497027737.5,36073,22.38,74176.3,5.09,-28.31,-28.53,0,*74
1497027738.77,36074,22.38,74178.0,5.09,-28.47,-28.63,0,*71
1497027740.0,36075,22.38,74178.0,5.07,-28.37,-28.63,0,*79
1497027741.25,36076,22.38,74178.8,5.03,-28.43,-28.75,0,*7A
1497027742.48,36077,22.38,74176.5,5.03,-28.37,-28.59,0,*76
1497027743.7,36078,22.38,74176.3,5.01,-28.37,-28.69,0,*78
1497027744.96,36079,22.38,74176.5,5.01,-28.37,-28.59,0,*7A
1497027746.21,36080,22.38,74178.5,5.01,-28.37,-28.59,0,*7C
1497027747.44,36081,22.38,74176.3,5.01,-28.37,-28.53,0,*77
1497027748.71,36082,22.38,74176.5,5.01,-28.21,-28.43,0,*72
1497027749.97,36083,22.38,74178.8,4.97,-28.21,-28.53,0,*7C
1497027751.24,36084,22.38,74180.5,4.97,-28.21,-28.47,0,*7E
1497027752.5,36085,22.38,74180.5,4.99,-28.25,-28.47,0,*75
1497027753.72,36086,22.38,74178.0,4.95,-28.31,-28.47,0,*7F
1497027754.98,36087,22.38,74182.3,4.95,-28.21,-28.47,0,*7F
1497027756.2,36088,22.38,74176.5,4.95,-28.15,-28.47,0,*77
1497027757.43,36089,22.38,74178.8,4.95,-28.15,-28.47,0,*76
1497027758.63,36090,22.38,74178.8,4.95,-28.15,-28.37,0,*79
1497027759.83,36091,22.38,74178.3,4.95,-28.15,-28.37,0,*78
1497027761.09,36092,22.38,74176.0,4.93,-28.09,-28.37,0,*70
1497027762.37,36093,22.38,74176.8,4.93,-28.21,-28.43,0,*78
1497027763.63,36094,22.38,74176.5,4.93,-27.99,-28.37,0,*70
1497027764.91,36095,22.38,74176.8,4.93,-28.05,-28.25,0,*78
1497027766.2,36096,22.38,74174.0,4.93,-28.09,-28.25,0,*77
1497027767.48,36097,22.38,74176.5,4.91,-28.05,-28.25,0,*78
1497027768.72,36098,22.38,74178.8,4.89,-28.09,-28.43,0,*72
1497027770.0,36099,22.38,74178.8,4.91,-28.05,-28.25,0,*76
1497027771.28,36100,22.38,74176.8,4.91,-28.05,-28.25,0,*77
1497027772.5,36101,22.38,74178.8,4.89,-27.93,-28.25,0,*7F
1497027773.7,36102,22.38,74174.5,4.89,-27.93,-28.15,0,*7F
1497027774.9,36103,22.38,74178.3,4.89,-27.93,-28.15,0,*7E
1497027776.13,36104,22.38,74178.8,4.89,-28.05,-28.31,0,*7F
1497027777.38,36105,22.38,74176.3,4.91,-27.89,-28.09,0,*77
1497027778.6,36106,22.38,74178.0,4.89,-27.89,-28.09,0,*7D
1497027779.82,36107,22.38,74178.5,4.89,-27.93,-28.09,0,*77
1497027781.04,36108,22.38,74178.8,4.89,-27.89,-28.09,0,*73
1497027782.31,36109,22.38,74178.5,4.87,-27.83,-28.09,0,*76
1497027783.54,36110,22.38,74176.3,4.87,-27.67,-27.93,0,*78
1497027784.79,36111,22.38,74176.8,4.87,-27.67,-27.83,0,*78
1497027786.02,36112,22.38,74178.8,4.87,-27.67,-27.93,0,*7A
1497027787.27,36113,22.38,74174.0,4.87,-27.61,-27.77,0,*77
1497027788.53,36114,22.38,74176.0,4.87,-27.45,-27.67,0,*77
1497027789.78,36115,22.38,74178.5,4.87,-27.35,-27.67,0,*71
1497027791.02,36116,22.38,74178.0,4.89,-27.23,-27.45,0,*7B
1497027792.22,36117,22.38,74178.0,4.89,-27.07,-27.29,0,*76
1497027793.42,36118,22.38,74178.8,4.89,-27.07,-27.29,0,*79
1497027794.64,36119,22.38,74176.5,4.89,-27.13,-27.39,0,*7C
1497027795.86,36120,22.38,74176.0,4.89,-27.23,-27.55,0,*7F
1497027797.1,36121,22.38,74178.8,4.91,-27.19,-27.51,0,*7A
1497027798.32,36122,22.38,74176.3,4.89,-27.13,-27.39,0,*74
1497027799.57,36123,22.38,74176.3,4.91,-27.03,-27.35,0,*71
1497027800.82,36124,22.38,74178.8,4.91,-27.23,-27.55,0,*72
1497027802.08,36125,22.38,74180.3,4.91,-27.19,-27.39,0,*70
1497027803.33,36126,22.38,74176.3,4.91,-27.35,-27.51,0,*73
1497027804.57,36127,22.38,74178.8,4.91,-27.35,-27.51,0,*72
1497027805.81,36128,22.38,74176.5,4.91,-27.35,-27.51,0,*7D
1497027807.08,36129,22.38,74178.3,4.91,-27.23,-27.39,0,*75
1497027808.35,36130,22.38,74180.5,4.91,-27.19,-27.39,0,*74
1497027809.6,36131,22.38,74178.8,4.91,-27.03,-27.23,0,*75
1497027810.87,36132,22.38,74180.5,4.91,-26.93,-27.35,0,*79
1497027812.12,36133,22.38,74182.0,4.91,-26.87,-27.19,0,*73
1497027813.34,36134,22.38,74176.5,4.95,-26.87,-27.19,0,*70
1497027814.6,36135,22.38,74176.3,4.93,-27.03,-27.35,0,*74
1497027815.86,36136,22.38,74178.3,4.93,-27.07,-27.35,0,*73
1497027817.1,36137,22.38,74178.0,4.95,-26.97,-27.29,0,*71
1497027818.33,36138,22.38,74180.3,4.95,-27.03,-27.45,0,*78
1497027819.57,36139,22.38,74178.8,4.95,-27.19,-27.45,0,*72
1497027820.81,36140,22.38,74180.0,4.95,-27.19,-27.45,0,*7C
1497027822.06,36141,22.38,74178.8,4.95,-27.19,-27.35,0,*7A
1497027823.32,36142,22.38,74176.0,4.97,-27.19,-27.45,0,*7C
1497027824.58,36143,22.38,74178.5,4.93,-27.23,-27.51,0,*75
1497027825.81,36144,22.38,74180.3,4.99,-27.07,-27.39,0,*70
1497027827.06,36145,22.38,74178.0,4.97,-27.13,-27.35,0,*76
1497027828.32,36146,22.38,74182.8,4.99,-26.97,-27.23,0,*71
1497027829.55,36147,22.38,74174.0,4.97,-27.03,-27.29,0,*78
1497027830.8,36148,22.44,74180.5,4.97,-27.13,-27.35,0,*7B
1497027832.05,36149,22.38,74182.5,4.97,-27.13,-27.35,0,*7A
1497027833.31,36150,22.38,74178.8,4.97,-26.97,-27.29,0,*72
1497027834.56,36151,22.38,74178.3,4.99,-26.97,-27.23,0,*77
1497027835.81,36152,22.38,74178.5,4.97,-27.03,-27.19,0,*7F
1497027837.07,36153,22.38,74180.8,4.99,-26.93,-27.23,0,*71
1497027838.28,36154,22.38,74182.5,4.99,-27.07,-27.29,0,*70
1497027839.51,36155,22.38,74176.0,4.99,-27.13,-27.39,0,*75
1497027840.76,36156,22.38,74180.0,4.99,-27.23,-27.39,0,*75
1497027841.99,36157,22.44,74180.3,4.99,-27.29,-27.45,0,*75
1497027843.22,36158,22.38,74180.0,4.99,-27.07,-27.39,0,*7D
1497027844.45,36159,22.38,74176.3,4.99,-26.81,-27.13,0,*7B
1497027845.68,36160,22.38,74178.0,4.99,-26.93,-27.13,0,*72
1497027846.9,36161,22.38,74182.3,5.03,-26.87,-27.19,0,*7E
1497027848.18,36162,22.38,74178.0,5.01,-26.93,-27.19,0,*7A
1497027849.43,36163,22.38,74178.0,5.03,-26.93,-27.19,0,*79
1497027850.68,36164,22.38,74178.3,5.01,-27.03,-27.35,0,*7A
1497027851.93,36165,22.38,74176.3,5.03,-27.19,-27.35,0,*72
1497027853.18,36166,22.44,74180.3,5.01,-27.03,-27.35,0,*78
1497027854.44,36167,22.38,74178.0,5.01,-27.07,-27.35,0,*7D
1497027855.68,36168,22.38,74176.8,5.01,-27.03,-27.23,0,*71
1497027856.91,36169,22.38,74176.3,5.03,-27.03,-27.35,0,*75
1497027858.14,36170,22.44,74180.5,5.03,-27.03,-27.35,0,*7D
1497027859.37,36171,22.38,74176.8,5.03,-27.07,-27.23,0,*7F
1497027860.6,36172,22.38,74176.0,5.03,-27.03,-27.23,0,*78
1497027861.82,36173,22.38,74178.5,5.03,-27.03,-27.23,0,*79
1497027863.05,36174,22.38,74176.3,5.03,-27.03,-27.35,0,*79
1497027864.31,36175,22.38,74178.8,5.07,-26.81,-27.19,0,*79
1497027865.51,36176,22.38,74178.0,5.07,-27.03,-27.29,0,*72
1497027866.74,36177,22.38,74174.0,5.07,-27.03,-27.35,0,*7E
1497027867.94,36178,22.38,74176.3,5.07,-27.03,-27.29,0,*7C
1497027869.2,36179,22.38,74178.8,5.07,-26.97,-27.19,0,*72
1497027870.43,36180,22.38,74178.0,5.07,-26.81,-27.03,0,*78
1497027871.68,36181,22.38,74178.3,5.09,-26.71,-27.03,0,*78
1497027872.9,36182,22.44,74178.8,5.07,-26.87,-27.19,0,*77
1497027874.13,36183,22.44,74182.0,5.09,-26.87,-27.03,0,*73
1497027875.38,36184,22.38,74178.0,5.09,-26.81,-27.13,0,*73
1497027876.61,36185,22.44,74176.3,5.07,-26.81,-27.03,0,*7D
1497027877.83,36186,22.38,74176.5,5.09,-26.87,-27.03,0,*76
1497027879.05,36187,22.38,74174.5,5.09,-26.87,-27.13,0,*76
1497027880.3,36188,22.44,74182.3,5.11,-26.77,-26.93,0,*76
1497027881.56,36189,22.44,74180.5,5.11,-26.77,-26.93,0,*77
1497027882.81,36190,22.38,74178.8,5.11,-26.77,-26.93,0,*7F
1497027884.05,36191,22.38,74178.0,5.13,-26.87,-26.93,0,*73
1497027885.3,36192,22.38,74176.3,5.13,-26.77,-27.03,0,*77
1497027886.55,36193,22.38,74178.0,5.13,-26.93,-27.03,0,*7C
1497027887.79,36194,22.38,74176.5,5.13,-26.87,-27.19,0,*75
1497027889.06,36195,22.38,74176.0,5.13,-26.93,-27.19,0,*71
1497027890.31,36196,22.44,74176.3,5.13,-27.03,-27.23,0,*73
1497027891.56,36197,22.38,74176.3,5.13,-27.23,-27.51,0,*75
1497027892.8,36198,22.38,74176.3,5.13,-27.35,-27.51,0,*7D
1497027894.06,36199,22.44,74180.5,5.13,-27.19,-27.39,0,*7C
1497027895.33,36200,22.38,74176.8,5.13,-27.23,-27.35,0,*7A
1497027896.58,36201,22.38,74178.5,5.13,-27.23,-27.51,0,*79
1497027897.82,36202,22.38,74178.5,5.13,-27.35,-27.55,0,*79
1497027899.08,36203,22.44,74178.3,5.13,-27.19,-27.39,0,*7C
1497027900.33,36204,22.38,74176.3,5.11,-27.23,-27.39,0,*70
1497027901.59,36205,22.44,74178.5,5.13,-27.19,-27.35,0,*76
1497027902.84,36206,22.38,74176.8,5.13,-27.23,-27.51,0,*7E
1497027904.11,36207,22.38,74176.3,5.13,-27.19,-27.35,0,*74
1497027905.38,36208,22.38,74172.5,5.13,-26.93,-27.19,0,*76
1497027906.63,36209,22.44,74176.5,5.13,-27.07,-27.35,0,*75
1497027907.9,36210,22.38,74178.0,5.13,-26.93,-27.23,0,*76
1497027909.16,36211,22.38,74176.0,5.15,-26.77,-26.93,0,*71
1497027910.38,36212,22.38,74178.0,5.15,-26.71,-26.87,0,*71
1497027911.58,36213,22.44,74178.3,5.15,-26.61,-26.87,0,*71
1497027912.78,36214,22.38,74176.8,5.15,-26.61,-26.87,0,*76
1497027914.02,36215,22.44,74176.8,5.17,-26.55,-26.87,0,*72
1497027915.27,36216,22.44,74176.3,5.17,-26.49,-26.81,0,*7A
1497027916.52,36217,22.38,74178.3,5.17,-26.71,-26.87,0,*76
1497027917.75,36218,22.44,74180.3,5.17,-26.65,-26.87,0,*7C
1497027918.95,36219,22.44,74178.5,5.19,-26.65,-26.87,0,*73
1497027920.16,36220,22.38,74178.3,5.19,-26.65,-26.87,0,*79
1497027921.41,36221,22.38,74176.0,5.21,-26.77,-27.13,0,*7C
1497027922.66,36222,22.44,74178.8,5.19,-26.71,-26.97,0,*7F
1497027923.88,36223,22.38,74176.0,5.19,-26.71,-27.03,0,*72
1497027925.08,36224,22.44,74176.0,5.19,-26.87,-27.03,0,*7C
1497027926.32,36225,22.38,74178.8,5.19,-26.81,-27.03,0,*7B
1497027927.54,36226,22.44,74178.3,5.19,-26.71,-27.03,0,*77
1497027928.79,36227,22.38,74174.5,5.21,-26.49,-26.81,0,*7D
1497027930.04,36228,22.38,74174.5,5.21,-26.61,-26.81,0,*78
1497027931.28,36229,22.44,74178.0,5.21,-26.45,-26.77,0,*76
1497027932.51,36230,22.44,74178.0,5.19,-26.49,-26.81,0,*70
1497027933.74,36231,22.38,74176.0,5.23,-26.45,-26.77,0,*7D
1497027934.96,36232,22.44,74176.8,5.23,-26.45,-26.77,0,*7E
1497027936.15,36233,22.38,74176.8,5.23,-26.45,-26.61,0,*78
1497027937.38,36234,22.38,74176.8,5.23,-26.45,-26.77,0,*78
1497027938.6,36235,22.44,74180.5,5.23,-26.45,-26.77,0,*79
1497027939.83,36236,22.44,74178.8,5.23,-26.49,-26.77,0,*76
1497027941.03,36237,22.38,74176.3,5.25,-26.39,-26.61,0,*71
1497027942.23,36238,22.38,74172.0,5.25,-26.39,-26.39,0,*73
1497027943.48,36239,22.44,74176.5,5.25,-26.55,-26.77,0,*72
1497027944.71,36240,22.44,74176.3,5.25,-26.39,-26.71,0,*70
1497027945.9,36241,22.38,74174.5,5.25,-26.45,-26.87,0,*73
1497027947.13,36242,22.44,74178.3,5.25,-26.55,-26.61,0,*79
1497027948.35,36243,22.44,74176.5,5.25,-26.55,-26.87,0,*70
1497027949.55,36244,22.38,74178.0,5.29,-26.65,-26.87,0,*78
1497027950.75,36245,22.44,74178.0,5.29,-26.49,-26.65,0,*7B
1497027952.0,36246,22.44,74178.8,5.29,-26.33,-26.55,0,*76
1497027953.25,36247,22.38,74174.3,5.31,-26.49,-26.71,0,*75
1497027954.47,36248,22.44,74176.5,5.29,-26.49,-26.71,0,*73
1497027955.7,36249,22.44,74176.3,5.31,-26.39,-26.65,0,*79
1497027956.9,36250,22.38,74178.5,5.29,-26.39,-26.65,0,*78
1497027958.12,36251,22.44,74178.5,5.29,-26.33,-26.65,0,*73
1497027959.35,36252,22.38,74176.5,5.31,-26.65,-26.87,0,*76
1497027960.6,36253,22.44,74176.8,5.31,-26.39,-26.71,0,*77
1497027961.86,36254,22.38,74176.0,5.31,-26.65,-26.97,0,*71
1497027963.11,36255,22.44,74178.3,5.33,-26.77,-26.93,0,*75
1497027964.37,36256,22.44,74176.0,5.35,-26.49,-26.81,0,*7E
1497027965.59,36257,22.44,74176.5,5.33,-26.61,-26.93,0,*70
1497027966.84,36258,22.44,74176.5,5.33,-26.77,-26.97,0,*7C
1497027968.1,36259,22.44,74176.3,5.33,-26.77,-26.97,0,*7D
1497027969.35,36260,22.44,74176.3,5.33,-26.81,-26.97,0,*7E
1497027970.58,36261,22.44,74178.5,5.33,-26.81,-27.07,0,*77
1497027971.8,36262,22.44,74180.3,5.33,-26.93,-27.07,0,*77
1497027973.03,36263,22.44,74180.3,5.33,-26.97,-27.07,0,*72
1497027974.25,36264,22.44,74178.3,5.33,-26.93,-27.13,0,*74
1497027975.45,36265,22.44,74178.8,5.33,-27.07,-27.13,0,*79
1497027976.71,36266,22.44,74178.0,5.35,-26.81,-27.07,0,*76
1497027977.96,36267,22.44,74178.0,5.33,-26.97,-27.23,0,*70
1497027979.19,36268,22.44,74178.3,5.33,-26.97,-27.13,0,*7C
1497027980.41,36269,22.44,74178.8,5.33,-26.93,-27.13,0,*79
1497027981.67,36270,22.44,74178.3,5.35,-26.93,-27.07,0,*72
1497027982.89,36271,22.44,74176.8,5.33,-26.81,-27.13,0,*73
1497027984.15,36272,22.44,74176.8,5.33,-26.77,-26.97,0,*74
1497027985.38,36273,22.44,74176.5,5.33,-26.81,-27.07,0,*74
1497027986.6,36274,22.44,74180.3,5.33,-26.93,-27.07,0,*70
1497027987.86,36275,22.44,74178.3,5.35,-26.97,-27.07,0,*73
1497027989.12,36276,22.44,74178.8,5.35,-26.97,-27.07,0,*70
1497027990.37,36277,22.44,74180.5,5.33,-26.81,-26.97,0,*78
1497027991.63,36278,22.44,74180.0,5.35,-26.65,-26.93,0,*7F
1497027992.86,36279,22.44,74178.8,5.33,-26.65,-26.93,0,*78
1497027994.09,36280,22.44,74178.0,5.33,-26.65,-26.97,0,*7A
1497027995.35,36281,22.44,74176.5,5.35,-26.65,-26.97,0,*7D
1497027996.6,36282,22.44,74180.3,5.35,-26.65,-26.93,0,*7A
1497027997.86,36283,22.44,74176.3,5.35,-26.65,-26.93,0,*7B
1497027999.11,36284,22.44,74178.0,5.35,-26.61,-26.81,0,*7B
1497028000.36,36285,22.44,74180.5,5.35,-26.61,-26.93,0,*79
1497028001.62,36286,22.44,74176.0,5.35,-26.49,-26.77,0,*7A
1497028002.87,36287,22.44,74174.8,5.35,-26.49,-26.77,0,*7B
1497028004.07,36288,22.44,74178.8,5.37,-26.61,-26.87,0,*73
1497028005.29,36289,22.44,74176.0,5.37,-26.45,-26.71,0,*7D
1497028006.52,36290,22.44,74176.5,5.37,-26.45,-26.55,0,*73
1497028007.74,36291,22.44,74176.3,5.41,-26.39,-26.55,0,*78
1497028008.92,36292,22.44,74180.0,5.41,-26.23,-26.49,0,*7D
1497028010.15,36293,22.44,74178.8,5.41,-26.33,-26.49,0,*7D
1497028011.37,36294,22.44,74178.5,5.41,-26.17,-26.23,0,*70
1497028012.57,36295,22.44,74176.5,5.41,-26.39,-26.65,0,*7F
1497028013.82,36296,22.44,74178.0,5.41,-26.81,-26.97,0,*72
1497028015.08,36297,22.44,74176.0,5.41,-26.81,-26.97,0,*73
1497028016.31,36298,22.44,74176.0,5.41,-26.81,-26.87,0,*7D
1497028017.56,36299,22.44,74176.0,5.41,-26.81,-26.97,0,*7D
1497028018.78,36300,22.44,74180.0,5.41,-26.71,-26.87,0,*72
1497028020.01,36301,22.44,74178.8,5.41,-26.65,-26.81,0,*70
1497028021.25,36302,22.44,74180.0,5.41,-26.55,-26.81,0,*70
1497028022.48,36303,22.44,74176.8,5.41,-26.49,-26.81,0,*7C
1497028023.73,36304,22.44,74176.5,5.43,-26.49,-26.77,0,*70
1497028024.93,36305,22.44,74180.5,5.41,-26.87,-27.03,0,*73
1497028026.18,36306,22.44,74178.8,5.43,-26.81,-27.07,0,*70
1497028027.44,36307,22.44,74176.5,5.43,-26.93,-27.07,0,*72
1497028028.69,36308,22.44,74180.3,5.41,-26.97,-27.19,0,*74
1497028029.97,36309,22.44,74182.8,5.43,-26.93,-26.97,0,*74
1497028031.22,36310,22.44,74180.3,5.43,-26.81,-27.13,0,*72
1497028032.44,36311,22.44,74182.3,5.41,-26.97,-27.13,0,*76
1497028033.66,36312,22.44,74178.8,5.41,-27.03,-27.19,0,*73
1497028034.92,36313,22.44,74180.0,5.43,-26.97,-27.13,0,*76
1497028036.14,36314,22.44,74178.0,5.41,-27.03,-27.35,0,*7B
1497028037.38,36315,22.44,74180.3,5.43,-27.13,-27.45,0,*7E
1497028038.61,36316,22.44,74180.3,5.41,-27.13,-27.35,0,*78
1497028039.83,36317,22.44,74178.5,5.41,-27.03,-27.19,0,*76
1497028041.06,36318,22.44,74178.5,5.41,-26.81,-27.03,0,*79
1497028042.28,36319,22.44,74178.5,5.41,-26.71,-26.87,0,*7A
1497028043.51,36320,22.44,74180.3,5.41,-26.77,-26.87,0,*76
1497028044.72,36321,22.44,74178.8,5.41,-26.71,-26.87,0,*71
1497028045.93,36322,22.44,74178.0,5.41,-26.65,-26.87,0,*77
1497028047.18,36323,22.44,74178.5,5.43,-26.65,-26.97,0,*75
1497028048.44,36324,22.44,74182.3,5.43,-26.97,-27.13,0,*72
1497028049.69,36325,22.44,74176.3,5.41,-26.97,-27.19,0,*7B
1497028050.94,36326,22.44,74178.0,5.43,-26.97,-27.13,0,*70
1497028052.19,36327,22.44,74180.3,5.41,-26.97,-27.19,0,*79
1497028053.45,36328,22.44,74180.5,5.43,-26.65,-26.97,0,*7E
1497028054.73,36329,22.44,74180.0,5.43,-26.77,-26.97,0,*7C
1497028055.97,36330,22.44,74178.5,5.41,-26.71,-26.97,0,*70
1497028057.2,36331,22.44,74176.8,5.41,-26.71,-26.87,0,*70
1497028058.39,36332,22.44,74178.8,5.41,-26.45,-26.65,0,*78
1497028059.62,36333,22.44,74178.0,5.41,-26.33,-26.65,0,*78
1497028060.86,36334,22.44,74176.3,5.45,-26.55,-26.71,0,*7E
1497028062.1,36335,22.44,74178.0,5.45,-26.71,-26.93,0,*75
1497028063.32,36336,22.44,74176.5,5.45,-26.61,-26.93,0,*77
1497028064.55,36337,22.44,74176.0,5.45,-26.71,-27.03,0,*7F
1497028065.76,36338,22.44,74178.5,5.45,-26.87,-27.19,0,*72
1497028066.99,36339,22.44,74174.0,5.45,-26.93,-27.07,0,*79
1497028068.23,36340,22.44,74178.5,5.45,-26.71,-26.93,0,*77
1497028069.47,36341,22.44,74178.3,5.49,-26.71,-26.93,0,*7A
1497028070.72,36342,22.44,74178.5,5.45,-26.71,-26.77,0,*7F
1497028071.96,36343,22.44,74176.0,5.45,-26.55,-26.77,0,*78
1497028073.18,36344,22.44,74178.3,5.45,-26.61,-26.77,0,*78
1497028074.43,36345,22.44,74178.0,5.45,-26.93,-27.19,0,*7D
1497028075.63,36346,22.44,74178.8,5.45,-26.87,-27.07,0,*74
1497028076.85,36347,22.44,74176.8,5.49,-26.93,-27.03,0,*78
1497028078.1,36348,22.44,74176.8,5.45,-26.93,-27.19,0,*70
1497028079.29,36349,22.44,74176.3,5.45,-26.87,-27.07,0,*7B
1497028080.51,36350,22.44,74176.5,5.49,-26.71,-26.87,0,*7F
1497028081.72,36351,22.44,74178.3,5.49,-26.55,-26.87,0,*78
1497028082.97,36352,22.44,74178.5,5.51,-26.71,-26.87,0,*74
1497028084.19,36353,22.44,74178.8,5.51,-26.87,-27.13,0,*70
1497028085.43,36354,22.44,74176.5,5.51,-26.87,-27.19,0,*7D
1497028086.63,36355,22.44,74180.3,5.49,-27.07,-27.29,0,*7F
1497028087.85,36356,22.44,74176.3,5.49,-27.03,-27.23,0,*72
1497028089.1,36357,22.44,74178.0,5.49,-26.93,-27.19,0,*72
1497028090.34,36358,22.44,74178.3,5.49,-26.93,-27.19,0,*7D
1497028091.59,36359,22.44,74176.3,5.51,-26.87,-26.97,0,*77
1497028092.81,36360,22.44,74176.5,5.49,-27.07,-27.23,0,*73
1497028094.05,36361,22.44,74178.8,5.49,-26.93,-27.19,0,*77
1497028095.27,36362,22.44,74182.0,5.49,-27.03,-27.23,0,*75
1497028096.49,36363,22.44,74176.3,5.49,-26.87,-26.93,0,*73
1497028097.68,36364,22.44,74178.5,5.49,-26.87,-27.03,0,*7C
1497028098.93,36365,22.44,74178.8,5.49,-26.77,-26.93,0,*7A
1497028100.15,36366,22.44,74182.8,5.49,-26.93,-27.03,0,*7B
1497028101.37,36367,22.44,74178.5,5.51,-26.87,-27.13,0,*77
1497028102.65,36368,22.44,74178.8,5.51,-26.97,-27.23,0,*7A